Hourly Data Report for August 21, 2013

All times are specified in Local Standard Time (LST). Add 1 hour to adjust for Daylight Saving Time where and when it is observed.

VICTORIA INTL A
BRITISH COLUMBIA

48°38'50.000" N
123°25'33.000" W
19.50 m
1018621
71799
YYJ

Download Data

Hourly Data (August 2013)
Hourly Data Report for August 21, 2013
Temp Definition
°C
Dew Point Temp Definition
°C
Rel Hum Definition
%
Wind Dir Definition
10's deg

Wind Spd Definition
km/h
Visibility Definition
km
Stn Press Definition
kPa
Hmdx Definition


Wind Chill Definition


Weather Definition


TIME
00:00 Legend Double Dagger 13.2 9.5 78 19 8 48.3 101.75     LegendNANA
01:00 Legend Double Dagger 13.4 9.7 78 25 8 48.3 101.74     Clear
02:00 Legend Double Dagger 11.6 9.4 86 25 12 48.3 101.74     LegendNANA
03:00 Legend Double Dagger 11.0 9.4 90 25 9 48.3 101.73     LegendNANA
04:00 Legend Double Dagger 10.1 9.0 93 24 9 48.3 101.72     Clear
05:00 Legend Double Dagger 11.6 9.4 86 27 11 48.3 101.72     LegendNANA
06:00 Legend Double Dagger 11.3 9.4 88 27 5 48.3 101.75     LegendNANA
07:00 Legend Double Dagger 14.2 10.1 76 29 7 48.3 101.75     Mainly Clear
08:00 Legend Double Dagger 16.5 9.5 63 30 8 48.3 101.76     LegendNANA
09:00 Legend Double Dagger 19.2 9.2 52 25 5 48.3 101.73     LegendNANA
10:00 Legend Double Dagger 21.4 10.4 49 8 10 48.3 101.70     Mainly Clear
11:00 Legend Double Dagger 22.1 11.9 52 8 18 48.3 101.69     LegendNANA
12:00 Legend Double Dagger 22.6 11.8 50 6 12 48.3 101.63 25   LegendNANA
13:00 Legend Double Dagger 24.0 10.8 43 2 10 48.3 101.57 26   Clear
14:00 Legend Double Dagger 25.4 11.0 40 2 11 48.3 101.49 27   LegendNANA
15:00 Legend Double Dagger 24.2 11.7 45 7 15 48.3 101.43 26   LegendNANA
16:00 Legend Double Dagger 24.3 11.1 43 7 13 48.3 101.36 26   Clear
17:00 Legend Double Dagger 23.5 10.4 43 9 8 48.3 101.31 25   LegendNANA
18:00 Legend Double Dagger 23.3 10.9 45 12 8 48.3 101.26 25   LegendNANA
19:00 Legend Double Dagger 19.9 11.2 57 10 4 48.3 101.23     Clear
20:00 Legend Double Dagger 16.8 10.9 68 3 3 48.3 101.25     LegendNANA
21:00 Legend Double Dagger 14.6 9.9 73 23 1 48.3 101.26     LegendNANA
22:00 Legend Double Dagger 13.2 8.9 75 27 3 48.3 101.26     Clear
23:00 Legend Double Dagger 12.4 10.0 85 29 4 48.3 101.26     LegendNANA

Notes on Data Quality.

Legend

  • E = Estimated
  • M = Missing
  • NA = Not Available
  • ‡ = Partner data that is not subject to review by the National Climate Archives
Date modified: